Date String (YYYY-MM-DD hh:mm:ss) UTC,Instrument flags,Ambient pressure (hPa),Sample flow (lpm),Bypass flow (lpm),Sample temperature (°C),Ambient temperature (°C),ASC tube jacket temperature (°C),LED temperature (°C),Box temperature (°C),Sample RH (%),Span deviation,Mass concentration (μg/m³),Mass concentration (μg/m³),Mass concentration (μg/m³)
DateTimeUTC,F1_M11,P_M11,Q1_M11,Q2_M11,T1_M11,T2_M11,T3_M11,T4_M11,T5_M11,U1_M11,ZSPAN_M11,X2_M11,X0_M11,X1_M11
2023-01-18 09:00:00,,0813.6,4.98,0.00,22.7,21.1,00.0,31.5,24.4,14.2,0000.0,0003.36,0003.83,0003.34
2023-01-18 09:01:00,,0813.6,4.99,0.00,22.7,21.1,00.0,31.5,24.4,14.2,0000.0,0003.35,0003.79,0003.34
2023-01-18 09:02:00,,0813.6,5.00,0.00,22.7,21.0,00.0,31.5,24.4,14.2,0000.0,0003.35,0003.70,0003.33
2023-01-18 09:03:00,,0813.6,5.01,0.00,22.7,21.0,00.0,31.5,24.4,14.3,0000.0,0003.35,0003.71,0003.33
2023-01-18 09:04:00,,0813.7,5.00,0.00,22.7,21.0,00.0,31.5,24.4,14.3,0000.0,0003.35,0003.70,0003.33
2023-01-18 09:05:00,,0813.6,4.99,0.00,22.6,21.0,00.0,31.5,24.4,14.3,0000.0,0003.35,0003.69,0003.33
2023-01-18 09:06:00,,0814.1,5.01,0.00,22.7,21.4,00.0,31.5,24.4,14.3,0000.0,0003.34,0003.66,0003.33
2023-01-18 09:07:00,,0814.2,4.99,0.00,22.7,22.3,00.0,31.5,24.7,14.2,0000.0,0003.33,0003.62,0003.32
2023-01-18 09:08:00,,0814.1,5.00,0.00,22.8,23.1,00.0,31.5,24.8,14.2,0000.0,0003.33,0003.66,0003.32
2023-01-18 09:09:00,,0814.3,4.99,0.00,22.9,22.9,00.0,31.5,24.9,14.1,0000.0,0003.33,0003.65,0003.31
2023-01-18 09:10:00,,0814.2,5.00,0.00,22.9,22.5,00.0,31.6,24.8,14.1,0000.0,0003.34,0003.67,0003.32
2023-01-18 09:11:00,,0814.2,5.01,0.00,22.9,22.2,00.0,31.6,24.8,14.1,0000.0,0003.34,0003.65,0003.32
2023-01-18 09:12:00,,0814.3,4.99,0.00,22.9,21.9,00.0,31.6,24.7,14.1,0000.0,0003.34,0003.68,0003.32
2023-01-18 09:13:00,,0814.2,4.98,0.00,22.9,21.7,00.0,31.6,24.7,14.1,0000.0,0003.36,0003.72,0003.33
2023-01-18 09:14:00,,0814.2,5.01,0.00,22.9,21.6,00.0,31.6,24.7,14.1,0000.0,0003.36,0003.73,0003.34
2023-01-18 09:15:00,,0814.2,5.00,0.00,22.9,21.4,00.0,31.6,24.6,14.1,-000.1,0003.37,0003.76,0003.34
2023-01-18 09:16:00,,0814.3,5.00,0.00,22.8,21.4,00.0,31.6,24.6,14.2,-000.2,0003.38,0003.80,0003.35
2023-01-18 09:17:00,,0814.2,5.02,0.00,22.8,21.3,00.0,31.6,24.6,14.2,0000.0,0003.39,0003.84,0003.36
2023-01-18 09:18:00,,0814.0,5.02,0.00,22.8,21.2,00.0,31.6,24.6,14.2,0000.0,0003.40,0003.86,0003.37
2023-01-18 09:19:00,,0814.1,5.00,0.00,22.8,21.1,00.0,31.6,24.5,14.2,0000.0,0003.41,0003.84,0003.37
2023-01-18 09:20:00,,0814.2,5.01,0.00,22.8,21.1,00.0,31.6,24.5,14.2,0000.0,0003.42,0003.88,0003.38
2023-01-18 09:21:00,,0814.2,5.00,0.00,22.8,21.1,00.0,31.6,24.5,14.2,0000.0,0003.43,0003.88,0003.39
2023-01-18 09:22:00,,0814.2,5.00,0.00,22.8,21.1,00.0,31.6,24.5,14.3,0000.0,0003.44,0003.89,0003.40
2023-01-18 09:23:00,,0814.2,4.98,0.00,22.7,21.0,00.0,31.5,24.4,14.3,0000.0,0003.44,0003.87,0003.40
2023-01-18 09:24:00,,0814.2,5.01,0.00,22.7,21.0,00.0,31.5,24.4,14.3,0000.0,0003.43,0003.85,0003.40
2023-01-18 09:25:00,,0814.3,5.04,0.00,22.7,21.0,00.0,31.5,24.4,14.3,0000.0,0003.44,0003.85,0003.40
2023-01-18 09:26:00,,0814.1,5.00,0.00,22.7,20.9,00.0,31.5,24.4,14.3,0000.0,0003.45,0003.85,0003.42
2023-01-18 09:27:00,,0814.3,5.00,0.00,22.7,20.9,00.0,31.5,24.3,14.3,0000.0,0003.46,0003.85,0003.43
2023-01-18 09:28:00,,0814.1,4.99,0.00,22.6,20.9,00.0,31.5,24.3,14.4,0000.0,0003.46,0003.85,0003.44
2023-01-18 09:29:00,,0814.2,5.02,0.00,22.6,20.8,00.0,31.5,24.3,14.4,0000.0,0003.49,0003.95,0003.46
2023-01-18 09:30:00,,0814.2,4.98,0.00,22.6,20.8,00.0,31.4,24.3,14.4,0000.0,0003.50,0004.00,0003.47
2023-01-18 09:31:00,,0814.2,5.01,0.00,22.6,20.8,00.0,31.4,24.2,14.4,0000.0,0003.51,0003.99,0003.49
2023-01-18 09:32:00,,0814.2,4.99,0.00,22.5,20.8,00.0,31.4,24.2,14.4,0000.0,0003.51,0003.99,0003.49
2023-01-18 09:33:00,,0814.2,5.02,0.00,22.5,21.0,00.0,31.4,24.3,14.5,0000.0,0003.53,0004.06,0003.51
2023-01-18 09:34:00,,0814.2,5.01,0.00,22.6,21.9,00.0,31.4,24.4,14.4,0000.0,0003.56,0004.12,0003.53
2023-01-18 09:35:00,,0814.2,5.01,0.00,22.7,22.8,00.0,31.4,24.7,14.4,0000.0,0003.58,0004.16,0003.56
2023-01-18 09:36:00,,0814.3,4.99,0.00,22.8,22.8,00.0,31.4,24.8,14.3,0000.0,0003.60,0004.20,0003.58
2023-01-18 09:37:00,,0814.2,5.01,0.00,22.8,22.3,00.0,31.4,24.7,14.3,0000.0,0003.63,0004.25,0003.60
2023-01-18 09:38:00,,0814.2,5.01,0.00,22.8,21.9,00.0,31.5,24.6,14.3,0000.0,0003.67,0004.32,0003.65
2023-01-18 09:39:00,,0814.2,5.00,0.00,22.8,21.6,00.0,31.5,24.5,14.3,0000.0,0003.72,0004.42,0003.69
2023-01-18 09:40:00,,0814.2,5.01,0.00,22.7,21.4,00.0,31.5,24.5,14.3,0000.0,0003.75,0004.42,0003.73
2023-01-18 09:41:00,,0814.2,4.99,0.00,22.7,21.3,00.0,31.5,24.5,14.3,0000.0,0003.82,0004.56,0003.80
2023-01-18 09:42:00,,0814.1,4.99,0.00,22.7,21.1,00.0,31.5,24.4,14.3,-000.6,0003.90,0004.72,0003.88
2023-01-18 09:43:00,,0814.3,5.01,0.00,22.7,21.1,00.0,31.5,24.4,14.3,-000.6,0003.97,0004.87,0003.95
2023-01-18 09:44:00,,0814.2,4.99,0.00,22.7,21.0,00.0,31.4,24.4,14.4,-000.5,0004.04,0005.02,0004.01
2023-01-18 09:45:00,,0814.2,4.99,0.00,22.7,20.9,00.0,31.4,24.4,14.4,-000.3,0004.09,0005.16,0004.07
2023-01-18 09:46:00,,0814.2,5.00,0.00,22.6,20.9,00.0,31.4,24.3,14.4,-000.6,0004.14,0005.27,0004.11
2023-01-18 09:47:00,,0814.2,5.01,0.00,22.6,20.8,00.0,31.4,24.3,14.4,-001.0,0004.21,0005.44,0004.17
2023-01-18 09:48:00,,0814.2,4.98,0.00,22.6,20.8,00.0,31.4,24.3,14.4,-001.3,0004.26,0005.59,0004.22
2023-01-18 09:49:00,,0814.2,5.02,0.00,22.6,20.8,00.0,31.4,24.2,14.4,-001.6,0004.28,0005.67,0004.24
2023-01-18 09:50:00,,0813.8,5.01,0.00,22.5,20.8,00.0,31.4,24.2,14.4,-001.9,0004.29,0005.73,0004.25
2023-01-18 09:51:00,,0813.7,5.00,0.00,22.5,20.7,00.0,31.4,24.2,14.5,-002.2,0004.30,0005.81,0004.26
2023-01-18 09:52:00,,0813.6,5.00,0.00,22.5,20.7,00.0,31.4,24.2,14.5,-002.4,0004.28,0005.77,0004.24
2023-01-18 09:53:00,,0813.6,5.00,0.00,22.5,20.7,00.0,31.3,24.1,14.5,-002.8,0004.25,0005.76,0004.21
2023-01-18 09:54:00,,0813.6,5.01,0.00,22.5,20.7,00.0,31.3,24.1,14.5,-003.0,0004.24,0005.75,0004.19
2023-01-18 09:55:00,,0813.6,5.00,0.00,22.4,20.7,00.0,31.3,24.1,14.5,-003.2,0004.21,0005.70,0004.17
2023-01-18 09:56:00,,0813.6,5.02,0.00,22.4,20.8,00.0,31.3,24.1,14.5,-003.3,0004.18,0005.64,0004.14
2023-01-18 09:57:00,,0813.6,5.01,0.00,22.5,21.5,00.0,31.3,24.3,14.5,-003.4,0004.17,0005.63,0004.13
2023-01-18 09:58:00,,0813.7,4.99,0.00,22.6,22.5,00.0,31.3,24.5,14.4,-003.3,0004.16,0005.61,0004.12
2023-01-18 09:59:00,,0813.8,5.00,0.00,22.7,23.0,00.0,31.3,24.7,14.4,-003.2,0004.14,0005.55,0004.10
